THORAD AGENA D R/B, 4367

Orbit data source: Space-Track

THORAD AGENA D R/B, 4367 is space debris in SSO originally from a launch on Wed, 08 Apr 1970 UTC launched from the Air Force Western Test Range (AFWTR). Debris objects in space refer to the collection of defunct objects orbiting the Earth. Examples of debris include non-operational satellites, rocket bodies, and fragments generated from explosions, collisions, or faulty payload assembly.

Loading next visibility...
Identifier
4367, 1970-025C
Orbit
SSO
Country
Flag of USUS
Related business
Manufacturer
LMSC
Mission
Spacecraft
Bus & Motor
AGENA D, Unknown motor
Mass
600 kg wet, 600 kg dry
Launch date (UTC)
1970-04-08 (56 years ago)
Launch vehicle
Unknown
Launch site
Air Force Western Test Range (AFWTR)
Object type
Payload
Rocket body
Debris
Shape & HBR
Unknown
Radar Cross Section
Large (>1 m²)

Expand to show TLE details & history
Last TLE update: 12 hours ago

TLE from 12 hours ago
0 THORAD AGENA D R/B
1 04367U 70025C   26168.85813223 -.00000011  00000-0  52239-4 0  9997
2 04367  99.9803 252.8478 0036051  39.2059  68.6698 13.51529348783012
Epoch: 2026-06-17T20:35Z
TLE epoch observation values (Epoch: 2026-06-17T20:35:42.624Z)
Latitude
69.34962°
Longitude
-114.51051°
Altitude
1,068.865 km
Speed
7.329 km/s
True Right ascension
06h 42m 06s
True Declination
69° 14' 26"
Sunlit
Object was in daylight at epoch
Visualization orbit readout
Latitude
Unknown
Longitude
Unknown
Altitude
Unknown
Speed
Unknown
Apparent Right ascension
Unknown
Apparent Declination
Unknown
Sunlit
N/A
Visualization observer readout
Local Sidereal Time
19:12:34
Azimuth
Unknown
Elevation
Unknown
Doppler factor
Unknown
Orbital elements
Apogee altitude
1,090.78 km
Perigee altitude
1,037.121 km
Semi-major axis
7,442.088 km
Eccentricity
0.00361
Inclination
99.9803°
RAAN
252.8478°
Arg. of periapsis
39.2059°
True anomaly
69.05524°
Mean anomaly
68.6698°
Eccentric anomaly
68.86246°
Mean motion
3.38066 °/min
Orbital period
106.49 mins
BSTAR
0.000052239

Documentation

Showing up to 5 results
|